ISS
1 25544U 98067A 10064.25728148 .00014794 00000-0 10734-3 0 7045
2 25544 051.6468 044.1586 0007596 015.0088 071.6680 15.73640827647108
CO-58
1 28895U 05043F 10062.70450115 .00000201 00000-0 51376-4 0 5261
2 28895 098.0287 310.5895 0016812 254.3483 105.5937 14.59853823231594
FALCON
1 30776U 07006E 10062.90307538 .00000785 00000-0 59432-4 0 7771
2 30776 035.4346 323.4242 0001767 329.1766 030.8846 15.03503669164205
MAST
1 31126U 07012K 10063.72790156 .00000208 00000-0 57310-4 0 8102
2 31126 097.9507 111.0752 0094582 190.1872 169.7396 14.53559986152885
CAPE1
1 31130U 07012P 10063.60914541 .00000098 00000-0 33338-4 0 8291
2 31130 097.9492 108.5811 0102545 198.0336 161.7148 14.52142944152485
COMPASS
1 32787U 08021E 10062.69461208 .00000640 00000-0 87726-4 0 6107
2 32787 097.9049 128.8543 0014726 269.0482 090.9037 14.81778287 99873
AAUSAT2
1 32788U 08021F 10062.43755648 .00000503 00000-0 70141-4 0 6048
2 32788 097.9061 128.7094 0013897 271.7049 088.2512 14.81912900 99842
DO-64
1 32789U 08021G 10062.25201417 .00000339 00000-0 49448-4 0 6200
2 32789 097.9116 128.8849 0014572 269.9126 090.0413 14.81989390 99814
CO-66
1 32791U 08021J 10063.17452524 .00000241 00000-0 37411-4 0 6010
2 32791 097.9066 129.3533 0014996 266.0755 093.8708 14.81579889 99909
RS-30
1 32953U 08025A 10062.60762319 .00000010 00000-0 00000 0 0 5390
2 32953 082.4985 095.3407 0018277 337.2807 022.7470 12.43003847 80623
TACSAT-3
1 35001U 09028A 10063.59728232 .00005590 00000-0 13869-3 0 2303
2 35001 040.4559 121.8641 0023434 301.7054 058.1476 15.40554018 44492
PHARMSAT
1 35002U 09028B 10063.46043939 .00004602 00000-0 11259-3 0 2184
2 35002 040.4710 121.1014 0026495 303.7953 056.0340 15.41189219 44483
HAWKSAT1
1 35003U 09028C 10063.47929045 .00009093 00000-0 20364-3 0 2307
2 35003 040.4637 118.3315 0024650 311.2683 048.6011 15.43091981 44526
CP6
1 35004U 09028D 10063.45530196 .00010586 00000-0 23293-3 0 2236
2 35004 040.4660 118.1620 0023884 310.6795 049.1950 15.43513599 44516
AEROCUB3
1 35005U 09028E 10062.55966831 .00020572 00000-0 43057-3 0 2366
2 35005 040.4755 124.0049 0022106 303.6424 056.2284 15.44653976 44378
DRAGNSAT
1 35690U 09038B 10063.26916647 .00405399 94025-4 40061-3 0 2951
2 35690 051.6303 026.6234 0004055 138.5403 221.6009 16.10700200 34468
POLLUX
1 35693U 09038E 10063.35545927 .00216072 00000-0 32646-3 0 2924
2 35693 051.6318 028.7836 0004938 118.0063 242.1982 16.03794029 34410
CASTOR
1 35694U 09038F 10063.39954103 .00042915 00000-0 14823-3 0 2132
2 35694 051.6373 035.2979 0004643 120.5511 239.6483 15.88743320 34330
METEOR-M
1 35865U 09049A 10063.21008766 .00000176 00000-0 10000-3 0 1416
2 35865 098.7725 117.6946 0001804 323.7744 036.3285 14.21828948 23801
RS-38
1 35869U 09049E 10062.70012911 .00000176 00000-0 10000-3 0 1432
2 35869 098.7728 117.2121 0004425 320.6480 039.4341 14.21976340 23733
